543  
SXUS52 KCHS 250512  
OSOCHS  
 
MARINE OBSERVATIONS  
NATIONAL WEATHER SERVICE CHARLESTON SC  
100 AM EDT MON MAY 25 2020  
   
..DOWNTOWN CHARLESTON AND HARBOR
 
 
 
CITY SKY/WX TMP DP RH WIND PRES REMARKS  
WATERFRONT PRK N/A 77 74 91 CALM 29.91F  
   
..LAKE MOULTRIE
 
 
 
CITY SKY/WX TMP DP RH WIND PRES REMARKS  
PINOPOLIS N/A 73 72 94 E5 30.01S  
   
..LAKE AND SUPPLEMENTAL COASTAL OBSERVATIONS
 
 
 
STATION/POSITION TIME TEMP WIND PRES WAVE SWELL  
AIR SEA DIR/SP/G HT/PER HT/PER/DIR  
(UTC) (F) (DEG/KT/KT) (MB) (FT/S) (FT/S/D)  
CHRLSTN HARBOR 0424 78 79 20/ 2/ 3 1018.4  
FORT PULASKI 0424 77 78 140/ 3/ 3 1018.3  
SAPELO ISLAND 0400 75 110/ 2 1017.0  
WINYAH BAY 0345 76 70/ 8 1018.0  
LAKE MURRAY 0420 72 CALM / 1 N/A  
ACE BASIN NERRS 0345 74 CALM 1018.0  
 
   
..C-MAN AND BUOY OBSERVATIONS
 
 
 
STATION/POSITION TIME TEMP WIND PRES WAVE SWELL  
AIR SEA DIR/SP/G HT/PER HT/PER/DIR  
(UTC) (F) (DEG/KT/KT) (MB) (FT/S) (FT/S/D)  
BUOY 41004 0500 76 76 1018.1  
BUOY 41008 0450 78 78 130/ 8/ 8 1017.0S 2/11 2/130/11  
FOLLY BEACH CMAN 0500 77 50/ 4/ 5 1018.6F  
PRITCHARDS ISLAN NOT AVBL  
CAPERS NS BUOY 0408 77 79 100/ 4/ 6 1018.1F  
FRIPP NS BUOY NOT AVBL  
5E ST. MARYS GA 0500 78 N/A 3/11 2/ 90/11  
 
 
STATION/POSITION TIME TEMP WIND PRES WAVE SWELL  
AIR SEA DIR/SP/G HT/PER HT/PER/DIR  
(UTC) (F) (DEG/KT/KT) (MB) (FT/S) (FT/S/D)  
FRYING PAN BUOY 0500 75 76 70/ 16/ 17 1018.2  
BUOY 41025 0450 63 79 10/ 14/ 17 1019.3F 4/10 3/110/10  
CAPE LOOKOUT NC 0500 65 40/ 17/ 19 1020.3F  
BUOY 41002 NOT AVBL  
BUOY 41010 0450 79 120/ 16/ 19 N/A 5/ 8 3/100/ 8  
ST AUGUSTINE FL 0500 78 78 1015.9F  
 

 
 
 
CLICK HERE TO GO TO PREVIOUS BULLETINS.

The Nexlab SC Page
The Nexlab GA Page Main Text Page